This demonstration page uses our WeatherBlox Daily Observations layout. Learn more.

Left ArrowRight Arrow

Hourly Observations for June 19, 2016

Temp ( °F °C ) Dew Point ( °F °C ) Humidity (%) Winds ( mph kmh ) Pressure ( in mb ) Visibility ( mi km ) Precip ( " mm )
12:52 am 00:52 Clear 74 23.3 63 17.2 69 69 Calm 30.15 1021 10 16 0.00 0.00
1:52 am 01:52 Clear 70 21.1 63 17.2 79 79 Calm 30.15 1021 10 16 0.00 0.00
2:52 am 02:52 Clear 70 21.1 63 17.2 79 79 SSE 3 6 30.13 1020 10 16 0.00 0.00
3:52 am 03:52 Clear 69 20.6 63 17.2 81 81 SE 3 6 30.13 1020 10 16 0.00 0.00
4:52 am 04:52 Clear 69 20.6 62 16.7 78 78 Calm 30.14 1021 10 16 0.00 0.00
5:52 am 05:52 Clear 68 20 61 16.1 78 78 SE 6 9 30.14 1021 10 16 0.00 0.00
6:52 am 06:52 Sunny 70 21.1 64 17.8 82 82 SE 6 9 30.16 1021 10 16 0.00 0.00
7:52 am 07:52 Sunny 75 23.9 65 18.3 71 71 SSE 9 15 30.16 1022 10 16 0.00 0.00
8:52 am 08:52 Sunny 79 26.1 67 19.4 67 67 SSE 9 15 30.17 1022 10 16 0.00 0.00
9:52 am 09:52 Sunny 81 27.2 67 19.4 62 62 S 7 11 30.19 1022 10 16 0.00 0.00
10:52 am 10:52 Sunny 83 28.3 66 18.9 57 57 S 8 13 30.19 1022 10 16 0.00 0.00
11:52 am 11:52 Mostly Cloudy 83 28.3 66 18.9 57 57 S 7 11 30.19 1022 10 16 0.00 0.00
12:52 pm 12:52 Partly Cloudy 85 29.4 65 18.3 51 51 S 9 15 30.17 1022 10 16 0.00 0.00
1:52 pm 13:52 Partly Cloudy 86 30 66 18.9 51 51 SSE 12 19 30.16 1021 10 16 0.00 0.00
2:52 pm 14:52 Mostly Sunny 87 30.6 67 19.4 51 51 SSE 7 11 30.15 1021 10 16 0.00 0.00
3:52 pm 15:52 Partly Cloudy 88 31.1 66 18.9 48 48 SSE 14 22 30.14 1021 10 16 0.00 0.00
4:52 pm 16:52 Sunny 87 30.6 66 18.9 50 50 SSE 10 17 30.13 1020 10 16 0.00 0.00
5:52 pm 17:52 Sunny 87 30.6 67 19.4 51 51 S 13 20 30.12 1020 10 16 0.00 0.00
6:52 pm 18:52 Mostly Sunny 86 30 67 19.4 53 53 S 12 19 30.12 1020 10 16 0.00 0.00
7:52 pm 19:52 Sunny 84 28.9 67 19.4 57 57 SSE 12 19 30.12 1020 10 16 0.00 0.00
8:52 pm 20:52 Clear 81 27.2 67 19.4 62 62 SSE 13 20 30.13 1020 10 16 0.00 0.00
9:52 pm 21:52 Clear 80 26.7 68 20 67 67 SSE 9 15 30.15 1021 10 16 0.00 0.00
10:52 pm 22:52 Clear 78 25.6 68 20 71 71 SSE 12 19 30.16 1022 10 16 0.00 0.00
11:52 pm 23:52 Clear 77 25 68 20 74 74 SSE 9 15 30.16 1022 10 16 0.00 0.00

Powered by AerisWeather